Regional Weather Roundup
Issued by NWS

Home | Current Version | Previous Version | Text Only | Print | Product List | Glossary Off
Versions: 1 2 3 4 5 6 7 8 9 10 11 12 13 14 15 16 17 18 19 20 21 22 23 24 25 26 27 28 29 30 31 32 33 34 35 36 37 38 39 40 41 42 43 44 45 46 47 48 49 50

000
ASUS43 KMPX 261101
RWRMN
WEATHER ROUNDUP FOR MINNESOTA
NATIONAL WEATHER SERVICE TWIN CITIES/CHANHASSEN MN
500 AM CST FRI DEC 26 2014


NOTE: "FAIR" INDICATES FEW OR NO CLOUDS BELOW 12,000 FEET WITH NO
SIGNIFICANT WEATHER AND/OR OBSTRUCTIONS TO VISIBILITY. N/A MEANS
CURRENT SKY AND/OR WEATHER CONDITIONS ARE NOT AVAILABLE.

MNZ060>063-068>070-261200-
   Twin Cities Metro

CITY           SKY/WX    TMP DP  RH WIND       PRES   REMARKS
TWIN CITIES    CLOUDY    32  29  88 N10       29.89R WCI  24
ST PAUL        CLOUDY    32  30  92 N9        29.91R WCI  24
CRYSTAL        CLOUDY    33  30  88 N9        29.89R WCI  25
BLAINE         CLOUDY    34  34 100 N7        29.90R FOG     WCI  28
LAKEVILLE      MOCLDY    30  30 100 N6        29.87R WCI  24
EDEN PRAIRIE   CLOUDY    33  30  88 N9        29.88R WCI  25
SOUTH ST PAUL  CLOUDY    33  31  92 N6        29.89R WCI  28
LAKE ELMO      CLOUDY    32  32 100 N7        29.90R WCI  26
$$
MNZ001>005-007-008-013>017-022>024-027-028-261200-
   Northwest Minnesota

CITY           SKY/WX    TMP DP  RH WIND       PRES   REMARKS
BEMIDJI        CLOUDY    24  19  83 N6        30.00R WCI  17
HALLOCK        FLURRIES  21  18  86 N8        30.08R WCI  12
ROSEAU         MOCLDY    21  16  79 N5        30.05R WCI  15
WARROAD        CLOUDY    21  18  86 N7        30.05R WCI  13
THIEF RVR FALL CLOUDY    23  19  86 NW8       30.05R WCI  14
CROOKSTON      CLOUDY    23  21  93 N9        30.08S WCI  13
FOSSTON        CLOUDY    21  19  93 N10       30.03R WCI  10
DETROIT LAKES  CLOUDY    27  23  86 N6        30.01R WCI  20
MOORHEAD       CLOUDY    25  25 100 N18       30.06R WCI  11
PARK RAPIDS    CLOUDY    25  20  81 N10       29.98R WCI  15
MAHNOMEN       CLOUDY    24  22  92 N10       30.02R WCI  13
$$
MNZ006-009>011-018-025>026-261200-
   North Central Minnesota

CITY           SKY/WX    TMP DP  RH WIND       PRES   REMARKS
BAUDETTE       LGT SNOW  22  19  89 N12       30.01S FOG     WCI  10
FLAG ISLAND    CLOUDY    21  18  86 N12       30.03R WCI   9
INTL FALLS     CLOUDY    25  22  88 NW8       29.98S WCI  16
WASKISH        CLOUDY    21  19  93 CALM      30.02R
BIG FORK       MIX PCPN  27  23  86 N3        29.98S
LONGVILLE      CLOUDY    25  23  93 N5        29.98R FOG     WCI  19
GRAND RAPIDS   CLOUDY    25  21  86 N7        29.96R WCI  17
CRANE LAKE     CLOUDY    27  25  93 CALM      29.99R
ORR            CLOUDY    27  21  80 CALM      29.94S
COOK           CLOUDY    27  23  86 CALM      29.96S
WALKER         CLOUDY    24  21  89 N5        29.98R WCI  18
$$
MNZ012-019>021-037-261200-
   Northeast Minnesota

CITY           SKY/WX    TMP DP  RH WIND       PRES   REMARKS
DULUTH         CLOUDY    28  21  75 N10       29.92R WCI  19
ELY            CLOUDY    25  21  86 CALM      29.95R
HIBBING        CLOUDY    27  20  75 N5        29.95S WCI  22
EVELETH        CLOUDY    27  23  86 N7        29.96S WCI  19
DULUTH HARBOR  CLOUDY    34  27  75 N12       29.97S WCI  25
TWO HARBORS    CLOUDY    30  25  80 N5        29.93R WCI  25
SILVER BAY     CLOUDY    28  21  74 N7        29.93R WCI  21
GRAND MARAIS     N/A     32  24  72 CALM      29.96S
G MARAIS ARPRT CLOUDY    25  19  80 NW5       29.91R WCI  19
$$
MNZ029>031-032-039>041-046>048-054>057-064-261200-
   West Central Minnesota

CITY           SKY/WX    TMP DP  RH WIND       PRES   REMARKS
FERGUS FALLS   CLOUDY    25  21  86 N10       30.04R WCI  15
WHEATON        CLOUDY    23  21  93 N14G22    30.05R FOG     WCI  11
MORRIS         MOCLDY    27  25  93 N10       29.98R WCI  17
ALEXANDRIA     CLOUDY    26  22  84 N13       29.96R WCI  15
ELBOW LAKE     CLOUDY    26  22  88 N10       29.99R WCI  15
WADENA         CLOUDY    25  21  86 N10       29.97R WCI  15
GLENWOOD       LGT SNOW  27  25  93 N13       29.96R WCI  16
APPLETON       CLOUDY    28  25  86 N16       29.99R WCI  17
BENSON         MIX PCPN  27  25  93 N8        29.97R WCI  18
ORTONVILLE     CLOUDY    27  21  80 N13       30.00R WCI  16
MADISON          N/A     30  27  86 N13       29.99R WCI  20
WILLMAR        CLOUDY    30  27  86 N10       29.95R WCI  21
$$
MNZ033>034-036-042>043-049>051-058-059-261200-
   Central Minnesota

CITY           SKY/WX    TMP DP  RH WIND       PRES   REMARKS
ST CLOUD       CLOUDY    32  26  78 N12       29.93S WCI  23
SAUK CENTRE    FLURRIES  26  24  92 N8        29.95S WCI  17
PAYNESVILLE    CLOUDY    26  25  96 NW7       29.94S WCI  18
AITKIN         CLOUDY    30  23  74 N6        29.95R WCI  24
PINE RIVER     CLOUDY    27  21  80 N9        30.00R WCI  17
BRAINERD       CLOUDY    27  22  81 N8        29.96R WCI  19
STAPLES        CLOUDY    25  21  86 N8        29.97R WCI  16
LONG PRAIRIE   CLOUDY    27  23  86 NW8       29.96R WCI  18
LITTLE FALLS   LGT SNOW  28  25  86 N3        29.96R
LITCHFIELD     CLOUDY    30  30 100 N9        29.92R WCI  22
BUFFALO        CLOUDY    30  28  92 N8        29.92R WCI  23
MAPLE LAKE     CLOUDY    31  30  96 N9        29.93R WCI  23
$$
MNZ037-044-045-052-053-261200-
   East Central Minnesota

CITY           SKY/WX    TMP DP  RH WIND       PRES   REMARKS
PRINCETON      CLOUDY    30  28  93 N8        29.92F WCI  23
MORA           CLOUDY    28  27  93 N5        29.96R WCI  23
CAMBRIDGE      MIX PCPN  32  25  74 N6        29.90F WCI  26
RUSH CITY      CLOUDY    30  28  93 N6        29.93S WCI  24
MOOSE LAKE     LGT SNOW  28  27  93 N5        29.93R WCI  23
HINCKLEY       CLOUDY    30  30 100 CALM      29.94S
CLOQUET        CLOUDY    28  23  80 N10G16    29.94R WCI  19
MCGREGOR       CLOUDY    28  25  86 N7        29.95S WCI  21
$$
MNZ071>073-080-081-089-090-097-098-261200-
   Southwest Minnesota

CITY           SKY/WX    TMP DP  RH WIND       PRES   REMARKS
MONTEVIDEO     CLOUDY    27  27 100 N13       29.98R WCI  16
GRANITE FALLS  CLOUDY    27  25  92 NW13      29.97R WCI  16
CANBY          CLOUDY    26  24  92 N12       29.99R WCI  16
MARSHALL       CLOUDY    27  21  80 N16       29.96R WCI  14
REDWOOD FALLS  CLOUDY    31  28  89 N9        29.93R WCI  23
OLIVIA         CLOUDY    28  28 100 N8        29.92R WCI  20
PIPESTONE      CLOUDY    27  25  93 N13G18    29.92R WCI  16
WINDOM         CLOUDY    30  30 100 N18       29.89R FOG     WCI  18
WORTHINGTON    CLOUDY    28 -18  12 N17       29.90R WCI  16
JACKSON        CLOUDY    32  30  93 N12       29.87R FOG     WCI  23
TRACY          MIX PCPN  28  27  96 N14       29.94R WCI  17
SLAYTON        CLOUDY    26  26  98 N15       29.92R FOG     WCI  14
$$
MNZ065>067-074>077-082>085-091>093-261200-
   South Central Minnesota

CITY           SKY/WX    TMP DP  RH WIND       PRES   REMARKS
MANKATO        CLOUDY    32  28  86 N12       29.86S WCI  23
NEW ULM        CLOUDY    30  30 100 N9G17     29.89S FOG     WCI  22
ST JAMES       CLOUDY    34  30  86 NW13      29.89R FOG     WCI  25
FAIRMONT       CLOUDY    32  28  86 N13       29.86R WCI  22
GLENCOE        CLOUDY    32  32  99 N9        29.90R WCI  24
FARIBAULT      CLOUDY    32  30  93 N8        29.86S FOG     WCI  25
OWATONNA       CLOUDY    32  30  93 N6        29.85R FOG     WCI  26
ALBERT LEA     PTCLDY    27  27 100 CALM      29.82S FOG
$$
MNZ078>079-086>088-094>096-261200-
   Southeast Minnesota

CITY           SKY/WX    TMP DP  RH WIND       PRES   REMARKS
ROCHESTER      CLEAR     28  27  96 E7        29.83S WCI  21
RED WING       CLOUDY    34  30  86 CALM      29.86S
STANTON        CLOUDY    32  31  93 N3        29.86R FOG
DODGE CENTER   CLOUDY    30  30 100 E6        29.82S WCI  24
WINONA         PTCLDY    28  27  93 CALM      29.87F FOG
AUSTIN         CLEAR     27  25  93 CALM      29.82S
PRESTON        CLEAR     30  28  91 CALM      29.84S
$$
ABBREVIATIONS USED IN REMARKS
   TC - TEMPERATURES IN CELSIUS
  WCI - WIND CHILL INDEX
   HX - HEAT INDEX
  VSB - VISIBILITY
$$



USA.gov is the U.S. government's official web portal to all federal, state and local government web resources and services.